Starlink 33547

operational
NORAD ID: 62283 Int'l Des: 2024-237 Owner: SPXS Country: US Constellation: starlink
LEOCIRCULAR

Starlink 33547について

説明を読み込み中...

リアルタイム位置

3D地球を読み込み中...

次回通過

高度履歴

Altitude vs Time

uPlot chart will show altitude changes over time

軌道要素

1 62283U 24237S 25258.29452389 .00061965 00000-0 22378-2 0 9994
2 62283 42.9994 115.9835 0001688 271.2841 88.7817 15.27648519 44498
Epoch: Sep 15, 2025 • Age: 17 hours

現在のステータス

高度 484.2 km
速度 7.63 km/s
衛星直下点 31.34°N, 148.99°E
打ち上げ日 Dec 8, 2024
運用期間 0.7 years
タイプ internet

技術仕様

分類 Payload
質量 530.00 kg
乾燥質量 500.00 kg
総質量 530.00 kg
長さ 0.30 m
直径 4.10 m
スパン 29.00 m
形状 Box + pan
製造者 SPXS
バスタイプ Starlink V2MO
フェーズステータス In Orbit
所有者/国 SPXS/US

大規模コンステレーション

Loading constellations...